Location: Vancouver
(49.2500°N, 123.1330°W)
Time: 14:57:21
(UTC-08:00)

A-11 Canister half - Visible Passes

Search period start: 23 January 2017 00:00
Search period end: 02 February 2017 00:00
Orbit: 1528 x 1682 km, 47.3° (Epoch: 23 January)

Date Brightness Start Highest point End Pass type
(mag) Time Alt. Az. Time Alt. Az. Time Alt. Az.
23 Jan 10.7 02:15:42 19° E 02:15:42 19° E 02:18:40 10° E visible
23 Jan 9.1 04:14:01 59° S 04:14:51 61° SSE 04:24:16 10° E visible
23 Jan 9.1 06:12:20 20° W 06:19:34 81° S 06:29:23 10° E visible
24 Jan 11.0 01:55:21 15° E 01:55:21 15° E 01:56:59 10° E visible
24 Jan 9.2 03:53:40 59° SE 03:53:40 59° SE 04:02:40 10° ENE visible
24 Jan 9.0 05:51:58 26° W 05:57:59 81° S 06:07:46 10° E visible
25 Jan 11.2 01:34:59 11° E 01:34:59 11° E 01:35:17 10° E visible
25 Jan 9.4 03:33:17 53° ESE 03:33:17 53° ESE 03:41:04 10° ENE visible
25 Jan 9.0 05:31:35 34° W 05:36:24 81° S 05:46:09 10° E visible
26 Jan 9.7 03:12:52 44° ESE 03:12:52 44° ESE 03:19:27 10° ENE visible
26 Jan 8.9 05:11:10 44° WSW 05:14:49 80° S 05:24:32 10° E visible
26 Jan 9.3 07:10:14 10° W 07:19:39 67° SSW 07:29:22 10° ESE visible
27 Jan 10.0 02:52:26 36° E 02:52:26 36° E 02:57:51 10° ENE visible
27 Jan 8.9 04:50:44 55° WSW 04:53:14 80° S 05:02:56 10° E visible
27 Jan 9.2 06:49:01 11° W 06:58:05 68° SSW 07:07:47 10° ESE visible
28 Jan 10.3 02:31:59 29° E 02:31:59 29° E 02:36:15 10° ENE visible
28 Jan 8.8 04:30:16 68° WSW 04:31:39 80° S 04:41:19 10° E visible
28 Jan 9.2 06:28:34 16° W 06:36:30 69° SSW 06:46:12 10° ESE visible
29 Jan 10.6 02:11:31 23° E 02:11:31 23° E 02:14:38 10° ENE visible
29 Jan 8.8 04:09:49 78° SSW 04:10:05 79° S 04:19:42 10° E visible
29 Jan 9.1 06:08:06 21° W 06:14:56 71° SSW 06:24:37 10° ESE visible
30 Jan 10.8 01:51:02 18° E 01:51:02 18° E 01:53:02 10° ENE visible
30 Jan 8.9 03:49:20 73° SE 03:49:20 73° SE 03:58:06 10° E visible
30 Jan 9.1 05:47:38 27° W 05:53:22 72° SSW 06:03:02 10° ESE visible
31 Jan 11.0 01:30:34 13° E 01:30:34 13° E 01:31:26 10° ENE visible
31 Jan 9.2 03:28:52 61° ESE 03:28:52 61° ESE 03:36:30 10° E visible
31 Jan 9.0 05:27:11 35° W 05:31:47 73° SSW 05:41:26 10° ESE visible
01 Feb 9.5 03:08:24 49° E 03:08:24 49° E 03:14:54 10° E visible
01 Feb 8.9 05:06:42 44° W 05:10:13 74° SSW 05:19:51 10° ESE visible
01 Feb 9.7 07:05:49 10° WNW 07:14:27 41° SW 07:23:21 10° SSE visible
